This demonstration page uses our WeatherBlox Daily Observations layout. Learn more.

Left ArrowRight Arrow

39.92423, -83.80882

Hourly Observations for October 27, 2020

Temp ( °F °C ) Dew Point ( °F °C ) Humidity (%) Winds ( mph kmh ) Pressure ( in mb ) Visibility ( mi km ) Precip ( " mm )
12:11 am 00:11 Cloudy with Light Rain 45 7 45 7 100 100 N 6 9 30.29 1026 6 9.65604 0.001 0.001
12:38 am 00:38 Cloudy with Light Rain 45 7 45 7 100 100 NE 5 7 30.27 1025 8 12.87472 0.001 0.001
12:56 am 00:56 Cloudy with Light Rain 44 6.7 44 6.7 100 100 ENE 6 9 30.27 1025 8 12.87472 0.001 0.001
1:29 am 01:29 Cloudy 45 7 45 7 100 100 NE 6 9 30.27 1025 8 12.87472 0.001 0.001
1:56 am 01:56 Cloudy 44 6.7 44 6.7 100 100 ENE 6 9 30.26 1025 9 14.48406 0.001 0.001
2:09 am 02:09 Cloudy 45 7 45 7 100 100 N 8 13 30.28 1026 9 14.48406 0 0
2:19 am 02:19 Cloudy 45 7 45 7 100 100 NE 7 11 30.28 1026 9 14.48406 0 0
2:34 am 02:34 Cloudy 45 7 45 7 100 100 ENE 8 13 30.26 1025 9 14.48406 0 0
2:56 am 02:56 Cloudy 44 6.7 44 6.7 100 100 NE 7 11 30.27 1025 8 12.87472 0 0
3:05 am 03:05 Cloudy 45 7 45 7 100 100 NE 6 9 30.27 1025 8 12.87472 0 0
3:56 am 03:56 Cloudy 44 6.7 44 6.7 100 100 NE 5 7 30.28 1025 8 12.87472 0 0
4:19 am 04:19 Cloudy 45 7 45 7 100 100 NE 5 7 30.28 1026 7 11.26538 0 0
4:56 am 04:56 Cloudy with Mist and Fog 44 6.7 44 6.7 100 100 ENE 3 6 30.27 1025 6 9.65604 0 0
5:10 am 05:10 Cloudy with Mist and Fog 45 7 45 7 100 100 ENE 5 7 30.27 1025 5 8.0467 0 0
5:17 am 05:17 Cloudy with Mist and Fog 45 7 45 7 100 100 ENE 5 7 30.27 1025 6 9.65604 0 0
5:56 am 05:56 Cloudy 44 6.7 44 6.7 100 100 ENE 6 9 30.28 1026 7 11.26538 0 0
6:56 am 06:56 Cloudy N/A N/A N/A ENE 5 7 N/A 7 11.26538 0.01 0.254
7:07 am 07:07 Cloudy with Haze N/A N/A N/A Calm N/A 6 9.65604 0 0
7:56 am 07:56 Cloudy with Mist and Fog 43 6.1 43 6.1 100 100 NE 6 9 30.29 1026 6 9.65604 0 0
8:56 am 08:56 Cloudy with Mist and Fog 44 6.7 44 6.7 100 100 ENE 6 9 30.29 1026 6 9.65604 0 0
9:17 am 09:17 Cloudy with Mist and Fog 45 7 45 7 100 100 E 7 11 30.28 1026 6 9.65604 0 0
9:26 am 09:26 Cloudy with Mist and Fog 45 7 45 7 100 100 E 8 13 30.28 1026 6 9.65604 0 0
9:56 am 09:56 Cloudy with Mist and Fog 45 7.2 44 6.7 97 97 E 7 11 30.28 1026 6 9.65604 0 0
10:56 am 10:56 Cloudy 46 7.8 46 7.8 100 100 SE 6 9 30.27 1025 7 11.26538 0 0
11:56 am 11:56 Cloudy 47 8.3 46 7.8 97 97 Calm 30.26 1025 7 11.26538 0 0
12:06 pm 12:06 Cloudy 46 8 46 8 100 100 ENE 5 7 30.25 1024 7 11.26538 0 0
12:56 pm 12:56 Cloudy 47 8.3 46 7.8 97 97 NNW 3 6 30.26 1025 8 12.87472 0 0
1:56 pm 13:56 Cloudy 48 8.9 46 7.8 93 93 Calm 30.22 1023 8 12.87472 0 0
2:56 pm 14:56 Cloudy 50 10 46 7.8 86 86 SSE 3 6 30.18 1022 10 16.0934 0 0
3:07 pm 15:07 Cloudy 50 10 46 8 88 88 Calm 30.18 1022 10 16.0934 0 0
3:56 pm 15:56 Cloudy 50 10 46 7.8 86 86 Calm 30.17 1022 10 16.0934 0 0
4:56 pm 16:56 Cloudy with Light Rain 49 9.4 47 8.3 93 93 W 3 6 30.18 1022 10 16.0934 0.001 0.001
5:17 pm 17:17 Cloudy with Light Rain 48 9 48 9 100 100 NNW 9 15 30.2 1023 7 11.26538 0.001 0.001
5:29 pm 17:29 Cloudy with Mist and Fog 48 9 48 9 100 100 NNW 8 13 30.19 1022 4 6.43736 0.001 0.001
5:40 pm 17:40 Cloudy with Mist and Fog 46 8 46 8 100 100 NNW 9 15 30.19 1022 2 3.21868 0.001 0.001
5:56 pm 17:56 Cloudy with Light Rain 47 8.3 47 8.3 100 100 N 8 13 30.2 1023 2 3.21868 0.001 0.001
6:08 pm 18:08 Cloudy with Mist and Fog 46 8 46 8 100 100 N 9 15 30.19 1022 1.75 2.816345 0 0
6:43 pm 18:43 Cloudy with Mist and Fog 46 8 46 8 100 100 NNE 6 9 30.18 1022 2 3.21868 0 0
6:51 pm 18:51 Cloudy with Mist and Fog 46 8 46 8 100 100 NNE 6 9 30.18 1022 1.75 2.816345 0 0
6:56 pm 18:56 Cloudy with Light Rain 46 7.8 46 7.8 100 100 NE 6 9 30.18 1022 2 3.21868 0.001 0.001
7:06 pm 19:06 Cloudy with Light Rain 46 8 46 8 100 100 NNE 5 7 30.18 1022 3 4.82802 0.001 0.001
7:56 pm 19:56 Cloudy with Mist and Fog 46 7.8 46 7.8 100 100 E 5 7 30.17 1022 4 6.43736 0.001 0.001
8:04 pm 20:04 Cloudy with Mist and Fog 46 8 46 8 100 100 ENE 5 7 30.18 1022 5 8.0467 0 0
8:08 pm 20:08 Cloudy with Mist and Fog 46 8 46 8 100 100 ENE 3 6 30.18 1022 4 6.43736 0 0
8:56 pm 20:56 Cloudy with Light Rain 46 7.8 46 7.8 100 100 NNE 6 9 30.19 1022 2.5 4.02335 0.001 0.001
9:23 pm 21:23 Cloudy with Light Rain 45 7 45 7 100 100 ENE 5 7 30.17 1022 2.5 4.02335 0.001 0.001
9:35 pm 21:35 Cloudy with Mist and Fog 45 7 45 7 100 100 NE 5 7 30.17 1022 3 4.82802 0.001 0.001
9:47 pm 21:47 Cloudy with Mist and Fog 45 7 45 7 100 100 NE 3 6 30.17 1022 3 4.82802 0.001 0.001
9:56 pm 21:56 Cloudy with Mist and Fog 45 7.2 45 7.2 100 100 NE 5 7 30.17 1022 3 4.82802 0.001 0.001
10:08 pm 22:08 Cloudy with Light Rain 45 7 45 7 100 100 N 5 7 30.18 1022 2 3.21868 0.001 0.001
10:56 pm 22:56 Cloudy with Light Rain 45 7.2 45 7.2 100 100 E 6 9 30.17 1022 3 4.82802 0.001 0.001
11:14 pm 23:14 Cloudy with Light Rain 45 7 45 7 100 100 SE 3 6 30.17 1022 4 6.43736 0.001 0.001
11:20 pm 23:20 Cloudy with Light Rain 45 7 45 7 100 100 Calm 30.17 1022 3 4.82802 0.001 0.001
11:27 pm 23:27 Cloudy with Light Rain 45 7 45 7 100 100 SSE 5 7 30.16 1021 3 4.82802 0.001 0.001
11:30 pm 23:30 Cloudy with Light Rain 45 7 45 7 100 100 SE 3 6 30.16 1021 3 4.82802 0.001 0.001
11:56 pm 23:56 Cloudy with Light Rain 45 7.2 45 7.2 100 100 SSE 3 6 30.16 1021 5 8.0467 0.001 0.001

Powered by AerisWeather